2016-02-25 00:01:40 r, 17.01m,0000000013Hz,0000034998c,0000000.076s, 009.6C,00002191
2016-02-25 00:11:39 r, 16.98m,0000000013Hz,0000034102c,0000000.074s, 009.6C,00002191
2016-02-25 00:21:39 r, 16.93m,0000000015Hz,0000032294c,0000000.070s, 009.6C,00002191
2016-02-25 00:31:41 r, 16.90m,0000000015Hz,0000031600c,0000000.069s, 009.9C,00002191
2016-02-25 00:41:39 r, 16.88m,0000000015Hz,0000031030c,0000000.067s, 009.9C,00002191
2016-02-25 00:51:39 r, 16.86m,0000000015Hz,0000030478c,0000000.066s, 009.9C,00002191
2016-02-25 01:01:40 r, 16.85m,0000000016Hz,0000029965c,0000000.065s, 009.6C,00002191
2016-02-25 01:11:40 r, 16.84m,0000000016Hz,0000029925c,0000000.065s, 009.6C,00002191
2016-02-25 01:21:40 r, 16.83m,0000000016Hz,0000029471c,0000000.064s, 009.6C,00002191
2016-02-25 01:31:40 r, 16.82m,0000000016Hz,0000029067c,0000000.063s, 009.3C,00002191
2016-02-25 01:41:40 r, 16.82m,0000000015Hz,0000029011c,0000000.063s, 009.0C,00002191
2016-02-25 01:51:40 r, 16.80m,0000000016Hz,0000028534c,0000000.062s, 009.0C,00002191
2016-02-25 02:01:41 r, 16.78m,0000000016Hz,0000028324c,0000000.061s, 008.7C,00002191
2016-02-25 02:11:39 r, 16.77m,0000000016Hz,0000027865c,0000000.060s, 009.0C,00002191
2016-02-25 02:21:40 r, 16.79m,0000000016Hz,0000028202c,0000000.061s, 009.0C,00002191
2016-02-25 02:31:41 r, 16.80m,0000000016Hz,0000028440c,0000000.062s, 009.0C,00002191
2016-02-25 02:41:39 r, 16.79m,0000000016Hz,0000028286c,0000000.061s, 009.0C,00002191
2016-02-25 02:51:40 r, 16.79m,0000000016Hz,0000028385c,0000000.062s, 009.0C,00002191
2016-02-25 03:01:39 r, 16.81m,0000000016Hz,0000028911c,0000000.063s, 009.0C,00002191
2016-02-25 03:11:40 r, 16.82m,0000000016Hz,0000029029c,0000000.063s, 009.0C,00002191
2016-02-25 03:21:40 r, 16.84m,0000000016Hz,0000029828c,0000000.065s, 008.7C,00002191
2016-02-25 03:31:40 r, 16.86m,0000000015Hz,0000030365c,0000000.066s, 008.7C,00002191
2016-02-25 03:41:41 r, 16.86m,0000000015Hz,0000030465c,0000000.066s, 008.7C,00002191
2016-02-25 03:51:40 r, 16.87m,0000000015Hz,0000030842c,0000000.067s, 008.3C,00002191
2016-02-25 04:01:39 r, 16.91m,0000000015Hz,0000031794c,0000000.069s, 008.3C,00002191
2016-02-25 04:11:39 r, 16.94m,0000000015Hz,0000032654c,0000000.071s, 008.3C,00002191
2016-02-25 04:21:40 r, 16.95m,0000000014Hz,0000033064c,0000000.072s, 008.3C,00002191
2016-02-25 04:31:40 r, 16.99m,0000000013Hz,0000034347c,0000000.075s, 008.3C,00002191
2016-02-25 04:41:41 r, 17.02m,0000000013Hz,0000035535c,0000000.077s, 008.0C,00002191
2016-02-25 04:51:39 r, 17.07m,0000000013Hz,0000036964c,0000000.080s, 008.0C,00002191
2016-02-25 05:01:40 r, 17.11m,0000000012Hz,0000038400c,0000000.083s, 008.0C,00002191
2016-02-25 05:11:39 r, 17.12m,0000000012Hz,0000038741c,0000000.084s, 008.0C,00002191
2016-02-25 05:21:39 r, 17.18m,0000000012Hz,0000040920c,0000000.089s, 008.0C,00002191
2016-02-25 05:31:39 r, 17.23m,0000000011Hz,0000042796c,0000000.093s, 008.0C,00002191
2016-02-25 05:41:39 r, 17.26m,0000000010Hz,0000043911c,0000000.095s, 008.0C,00002191
2016-02-25 05:51:39 r, 17.29m,0000000010Hz,0000045129c,0000000.098s, 008.0C,00002191
2016-02-25 06:01:39 r, 17.30m,0000000010Hz,0000045367c,0000000.098s, 008.0C,00002191
2016-02-25 06:11:40 r, 17.22m,0000000011Hz,0000042267c,0000000.092s, 007.7C,00002191
2016-02-25 06:21:39 r, 16.91m,0000000015Hz,0000031926c,0000000.069s, 007.7C,00002191
2016-02-25 06:31:40 r, 16.02m,0000000033Hz,0000013994c,0000000.030s, 007.7C,00002191
2016-02-25 06:41:39 r, 14.39m,0000000148Hz,0000000000c,0000000.000s, 007.7C,00002191
2016-02-25 06:51:39 r, 12.31m,0000001005Hz,0000000000c,0000000.000s, 007.7C,00002191
2016-02-25 07:01:39 r, 10.21m,0000006992Hz,0000000000c,0000000.000s, 007.7C,00002191
2016-02-25 07:11:40 r, 08.47m,0000034734Hz,0000000000c,0000000.000s, 007.7C,00002191
2016-02-25 07:21:40 r, 07.16m,0000114742Hz,0000000000c,0000000.000s, 007.7C,00002191
2016-02-25 07:31:39 r, 06.29m,0000257059Hz,0000000000c,0000000.000s, 007.7C,00002191
2016-02-25 07:41:39 r, 00.00m,0000453921Hz,0000000000c,0000000.000s, 007.7C,00002191
2016-02-25 07:51:39 r, 00.00m,0000597124Hz,0000000000c,0000000.000s, 008.0C,00002191
2016-02-25 08:01:40 r, 00.00m,0000597207Hz,0000000000c,0000000.000s, 008.0C,00002191
2016-02-25 08:11:42 r, 00.00m,0000597154Hz,0000000000c,0000000.000s, 008.3C,00002191
2016-02-25 08:21:39 r, 00.00m,0000597191Hz,0000000000c,0000000.000s, 008.7C,00002191
2016-02-25 08:31:39 r, 00.00m,0000597156Hz,0000000000c,0000000.000s, 008.7C,00002191
2016-02-25 08:41:41 r, 00.00m,0000597148Hz,0000000000c,0000000.000s, 008.7C,00002191
2016-02-25 08:51:39 r, 00.00m,0000596969Hz,0000000000c,0000000.000s, 009.3C,00002191
2016-02-25 09:01:39 r, 00.00m,0000596941Hz,0000000000c,0000000.000s, 009.6C,00002191
2016-02-25 09:11:40 r, 00.00m,0000596891Hz,0000000000c,0000000.000s, 010.9C,00002191
2016-02-25 09:21:40 r, 00.00m,0000596809Hz,0000000000c,0000000.000s, 011.9C,00002191
2016-02-25 09:31:39 r, 00.00m,0000596562Hz,0000000000c,0000000.000s, 012.8C,00002191
2016-02-25 09:41:40 r, 00.00m,0000596482Hz,0000000000c,0000000.000s, 014.5C,00002191
2016-02-25 09:51:39 r, 00.00m,0000596458Hz,0000000000c,0000000.000s, 015.1C,00002191
2016-02-25 10:01:39 r, 00.00m,0000596522Hz,0000000000c,0000000.000s, 015.1C,00002191
2016-02-25 10:11:40 r, 00.00m,0000596523Hz,0000000000c,0000000.000s, 015.1C,00002191
2016-02-25 10:21:40 r, 00.00m,0000596384Hz,0000000000c,0000000.000s, 015.1C,00002191
2016-02-25 10:31:39 r, 00.00m,0000596376Hz,0000000000c,0000000.000s, 015.4C,00002191
2016-02-25 10:41:40 r, 00.00m,0000596410Hz,0000000000c,0000000.000s, 015.7C,00002191
2016-02-25 10:51:40 r, 00.00m,0000596377Hz,0000000000c,0000000.000s, 016.1C,00002191
2016-02-25 11:01:39 r, 00.00m,0000596304Hz,0000000000c,0000000.000s, 016.4C,00002191
2016-02-25 11:11:41 r, 00.00m,0000596181Hz,0000000000c,0000000.000s, 017.0C,00002191
2016-02-25 11:21:40 r, 00.00m,0000596098Hz,0000000000c,0000000.000s, 017.4C,00002191
2016-02-25 11:31:40 r, 00.00m,0000596127Hz,0000000000c,0000000.000s, 018.0C,00002191
2016-02-25 11:41:39 r, 00.00m,0000595974Hz,0000000000c,0000000.000s, 018.6C,00002191
2016-02-25 11:51:40 r, 00.00m,0000595960Hz,0000000000c,0000000.000s, 019.0C,00002191
2016-02-25 12:01:39 r, 00.00m,0000595967Hz,0000000000c,0000000.000s, 019.6C,00002191
2016-02-25 12:11:41 r, 00.00m,0000595848Hz,0000000000c,0000000.000s, 019.9C,00002191
2016-02-25 12:21:39 r, 00.00m,0000595827Hz,0000000000c,0000000.000s, 019.9C,00002191
2016-02-25 12:31:39 r, 00.00m,0000595784Hz,0000000000c,0000000.000s, 020.3C,00002191
2016-02-25 12:41:41 r, 00.00m,0000595770Hz,0000000000c,0000000.000s, 019.9C,00002191
2016-02-25 12:51:40 r, 00.00m,0000595758Hz,0000000000c,0000000.000s, 019.9C,00002191
2016-02-25 13:01:39 r, 00.00m,0000595808Hz,0000000000c,0000000.000s, 019.9C,00002191
2016-02-25 13:11:39 r, 00.00m,0000595918Hz,0000000000c,0000000.000s, 019.6C,00002191
2016-02-25 13:21:39 r, 00.00m,0000595821Hz,0000000000c,0000000.000s, 019.6C,00002191
2016-02-25 13:31:39 r, 00.00m,0000595844Hz,0000000000c,0000000.000s, 019.6C,00002191
2016-02-25 13:41:39 r, 00.00m,0000595801Hz,0000000000c,0000000.000s, 020.3C,00002191
2016-02-25 13:51:40 r, 00.00m,0000595770Hz,0000000000c,0000000.000s, 020.9C,00002191
2016-02-25 14:01:39 r, 00.00m,0000595762Hz,0000000000c,0000000.000s, 021.2C,00002191
2016-02-25 14:11:40 r, 00.00m,0000595750Hz,0000000000c,0000000.000s, 021.2C,00002191
2016-02-25 14:21:39 r, 00.00m,0000595702Hz,0000000000c,0000000.000s, 021.2C,00002191
2016-02-25 14:31:39 r, 00.00m,0000595693Hz,0000000000c,0000000.000s, 021.2C,00002191
2016-02-25 14:41:40 r, 00.00m,0000595763Hz,0000000000c,0000000.000s, 021.2C,00002191
2016-02-25 14:51:39 r, 00.00m,0000595827Hz,0000000000c,0000000.000s, 020.6C,00002191
2016-02-25 15:01:39 r, 00.00m,0000595891Hz,0000000000c,0000000.000s, 019.9C,00002191
2016-02-25 15:11:39 r, 00.00m,0000595958Hz,0000000000c,0000000.000s, 019.0C,00002191
2016-02-25 15:21:39 r, 00.00m,0000596068Hz,0000000000c,0000000.000s, 017.7C,00002191
2016-02-25 15:31:39 r, 00.00m,0000596236Hz,0000000000c,0000000.000s, 016.4C,00002191
2016-02-25 15:41:39 r, 00.00m,0000596461Hz,0000000000c,0000000.000s, 014.8C,00002191
2016-02-25 15:51:39 r, 00.00m,0000596565Hz,0000000000c,0000000.000s, 013.8C,00002191
2016-02-25 16:01:39 r, 00.00m,0000596622Hz,0000000000c,0000000.000s, 012.8C,00002191
2016-02-25 16:11:39 r, 00.00m,0000596679Hz,0000000000c,0000000.000s, 012.2C,00002191
2016-02-25 16:21:40 r, 00.00m,0000596681Hz,0000000000c,0000000.000s, 011.9C,00002191
2016-02-25 16:31:40 r, 00.00m,0000596738Hz,0000000000c,0000000.000s, 011.2C,00002191
2016-02-25 16:41:40 r, 00.00m,0000596827Hz,0000000000c,0000000.000s, 010.3C,00002191
2016-02-25 16:51:39 r, 00.00m,0000596910Hz,0000000000c,0000000.000s, 009.6C,00002191
2016-02-25 17:01:39 r, 00.00m,0000596950Hz,0000000000c,0000000.000s, 009.0C,00002191
2016-02-25 17:11:41 r, 00.00m,0000596966Hz,0000000000c,0000000.000s, 008.3C,00002191
2016-02-25 17:21:39 r, 00.00m,0000597110Hz,0000000000c,0000000.000s, 008.0C,00002191
2016-02-25 17:31:40 r, 00.00m,0000596120Hz,0000000000c,0000000.000s, 007.4C,00002191
2016-02-25 17:41:39 r, 05.89m,0000372410Hz,0000000000c,0000000.000s, 006.7C,00002191
2016-02-25 17:51:39 r, 06.55m,0000203215Hz,0000000000c,0000000.000s, 006.4C,00002191
2016-02-25 18:01:40 r, 07.26m,0000105893Hz,0000000000c,0000000.000s, 005.8C,00002191
2016-02-25 18:11:40 r, 08.36m,0000038381Hz,0000000000c,0000000.000s, 005.4C,00002191
2016-02-25 18:21:40 r, 09.96m,0000008778Hz,0000000000c,0000000.000s, 005.4C,00002191
2016-02-25 18:31:40 r, 11.92m,0000001436Hz,0000000000c,0000000.000s, 005.1C,00002191
2016-02-25 18:41:40 r, 13.91m,0000000229Hz,0000000000c,0000000.000s, 005.1C,00002191
2016-02-25 18:51:39 r, 15.97m,0000000034Hz,0000013455c,0000000.029s, 004.8C,00002191
2016-02-25 19:01:39 r, 17.64m,0000000007Hz,0000062398c,0000000.135s, 004.8C,00002191
2016-02-25 19:11:40 r, 18.70m,0000000002Hz,0000165215c,0000000.359s, 004.8C,00002191
2016-02-25 19:21:39 r, 19.18m,0000000001Hz,0000256140c,0000000.556s, 004.8C,00002191
2016-02-25 19:31:40 r, 19.38m,0000000002Hz,0000310097c,0000000.673s, 004.5C,00002191
2016-02-25 19:41:39 r, 19.74m,0000000001Hz,0000429136c,0000000.931s, 004.5C,00002191
2016-02-25 19:51:39 r, 20.16m,0000000001Hz,0000633507c,0000001.375s, 004.1C,00002191
2016-02-25 20:01:40 r, 20.24m,0000000000Hz,0000677472c,0000001.470s, 004.1C,00002191
2016-02-25 20:11:39 r, 20.22m,0000000000Hz,0000669351c,0000001.453s, 003.8C,00002191
2016-02-25 20:21:40 r, 20.29m,0000000001Hz,0000710527c,0000001.542s, 003.5C,00002191
2016-02-25 20:31:39 r, 20.24m,0000000001Hz,0000681622c,0000001.479s, 003.2C,00002191
2016-02-25 20:41:39 r, 20.32m,0000000001Hz,0000732432c,0000001.589s, 003.2C,00002191
2016-02-25 20:51:39 r, 20.27m,0000000000Hz,0000697746c,0000001.514s, 002.9C,00002191
2016-02-25 21:01:39 r, 19.98m,0000000001Hz,0000532688c,0000001.156s, 002.5C,00002191
2016-02-25 21:11:39 r, 19.86m,0000000001Hz,0000479205c,0000001.040s, 002.5C,00002191
2016-02-25 21:21:39 r, 19.86m,0000000001Hz,0000477986c,0000001.037s, 002.9C,00002191
2016-02-25 21:31:39 r, 19.59m,0000000001Hz,0000373673c,0000000.811s, 003.2C,00002191
2016-02-25 21:41:39 r, 19.82m,0000000001Hz,0000459095c,0000000.996s, 003.5C,00002191
2016-02-25 21:51:39 r, 19.60m,0000000001Hz,0000378120c,0000000.821s, 004.1C,00002191
2016-02-25 22:01:39 r, 19.47m,0000000002Hz,0000336908c,0000000.731s, 004.5C,00002191
2016-02-25 22:11:39 r, 19.29m,0000000002Hz,0000286258c,0000000.621s, 004.8C,00002191
2016-02-25 22:21:40 r, 19.20m,0000000001Hz,0000261837c,0000000.568s, 004.8C,00002191
2016-02-25 22:31:39 r, 18.82m,0000000002Hz,0000185238c,0000000.402s, 004.8C,00002191
2016-02-25 22:41:39 r, 19.02m,0000000002Hz,0000222881c,0000000.484s, 004.8C,00002191
2016-02-25 22:51:40 r, 19.31m,0000000001Hz,0000290898c,0000000.631s, 004.8C,00002191
2016-02-25 23:01:39 r, 19.27m,0000000001Hz,0000281131c,0000000.610s, 004.5C,00002191
2016-02-25 23:11:39 r, 18.63m,0000000003Hz,0000154670c,0000000.336s, 004.5C,00002191
2016-02-25 23:21:40 r, 18.21m,0000000005Hz,0000105654c,0000000.229s, 004.5C,00002191
2016-02-25 23:31:39 r, 18.20m,0000000005Hz,0000104681c,0000000.227s, 004.5C,00002191
2016-02-25 23:41:39 r, 18.08m,0000000005Hz,0000094057c,0000000.204s, 004.5C,00002191
2016-02-25 23:51:40 r, 18.38m,0000000004Hz,0000122968c,0000000.267s, 004.8C,00002191
